Location: ????????
(38.4362°N, 22.8767°E)
Time: 03:45:33
(UTC+00:00)

DMSP B5D2-2 - Pass Details

Date: 23 April 2024
Orbit: 788 x 802 km, 98.3° (Epoch: 23 May)

Event Time Altitude Azimuth Distance (km) Brightness Sun altitude
Rises 02:25:55 0° 166° (SSE) 3,267 7.1 -14.4°
Reaches altitude 10° 02:28:14 10° 167° (SSE) 2,342 6.4 -14.0°
Maximum altitude 02:33:25 86° 257° (WSW) 795 4.0 -13.1°
Drops below altitude 10° 02:38:38 10° 346° (NNW) 2,359 6.7 -12.2°
Sets 02:40:58 0° 347° (NNW) 3,293 7.5 -11.8°
